[[{"header":{"parameterUnit":"m.s-1","parameterCategory":1,"la1":30.2991,"la2":30.254,"lo1":-89.0895,"lo2":-89.0444,"dy":0.0017,"dx":0.0017,"nx":28,"ny":28,"refTime":"2023-08-31T09:00:00:Z","depth":0,"parameterNumber":2,"parameterNumberName":"U-component_of_WINDS"},"data":[0,0,0,0,0,0,0,0,0,0,0,0,0,0,0,0,0,0,0,0,0,0,0,0,0,0,0,0,0,0,0,0,0,0,0,0,0,0,0,0,0,0,0,0,0,0,0,0,0,0,0,0,0,0,0,0,0,0,1.0574,1.0575,0,1.0644,1.0645,1.0645,1.0642,1.0641,1.064,1.0639,1.0709,1.0712,1.0715,0,0,0,0,0,0,0,0,0,0,0,0,0,1.0439,1.0441,1.0574,1.0575,1.0576,1.0644,1.0645,1.0646,1.0642,1.0641,1.064,1.0638,1.0708,1.0712,1.0715,0,0,0,0,0,0,0,0,0,0,0,0,0,1.0502,1.0442,1.0574,1.0582,1.0584,1.0644,1.0645,1.0646,1.0642,1.0641,1.0639,1.0638,1.0707,1.0711,1.0716,1.0771,0,0,1.0728,1.073,0,0,0,0,0,0,0,0,1.0498,1.0507,1.058,1.0582,1.0584,1.0633,1.0623,1.0688,1.0643,1.062,1.0639,1.0637,1.0685,1.0691,1.0707,1.0775,1.0778,1.0729,1.0731,1.0733,1.0734,0,0,0,0,0,0,0,1.0494,1.0504,1.0602,1.0581,1.0583,1.0583,1.059,1.0635,1.066,1.0622,1.0622,1.063,1.0686,1.0703,1.0709,1.0779,1.0729,1.0732,1.0735,1.0737,1.0898,1.09,0,0,0,0,0,0,1.0488,1.05,1.06,1.0604,1.0536,1.0586,1.0595,1.0618,1.0659,1.0664,1.0631,1.063,1.0697,1.0704,1.0711,1.0781,1.0733,1.0737,1.0739,1.0896,1.0898,1.09,0,0,0,0,0,0,1.0485,1.0497,1.0597,1.0552,1.0565,1.059,1.0617,1.0621,1.0638,1.0667,1.0671,1.0645,1.0696,1.0705,1.0757,1.0783,1.0739,1.0743,1.0894,1.0897,1.0899,1.092,0,0,0,0,0,0,1.0481,1.0496,1.0517,1.0553,1.0567,1.0641,1.0619,1.0623,1.0645,1.0644,1.068,1.0685,1.0695,1.0751,1.0761,1.0788,1.0746,1.0892,1.0895,1.0898,1.0917,1.0923,1.0928,0,0,0,0,0,1.0476,1.0519,1.0518,1.053,1.0594,1.0643,1.0651,1.0662,1.0648,1.0669,1.0688,1.0684,1.0779,1.0756,1.0768,1.0796,1.089,1.0894,1.0898,1.0914,1.0921,1.0928,0,0,0,0,0,0,1.0485,1.0524,1.0523,1.0579,1.0608,1.0642,1.067,1.0669,1.0702,1.07,1.0712,1.0721,1.0773,1.079,1.0764,1.0854,1.0833,1.0839,1.0841,1.0848,1.0853,1.0848,1.075,0,0,0,0,0,1.0494,1.053,1.0562,1.0608,1.0622,1.0644,1.0665,1.0672,1.0702,1.0714,1.0736,1.0765,1.0802,1.0826,1.0861,1.0919,1.0928,1.0945,1.095,1.0955,1.096,1.0994,1.1003,1.0913,1.0913,1.0913,0,0,1.0511,1.0537,1.0559,1.061,1.0633,1.0671,1.0654,1.0694,1.0722,1.072,1.077,1.0788,1.0822,1.0877,1.0903,1.0893,1.0987,1.096,1.0963,1.0966,1.0999,1.1008,1.1015,1.0916,1.0915,1.0915,0,0,1.0563,1.0586,1.0628,1.0652,1.0687,1.0701,1.0711,1.0746,1.0758,1.0809,1.0809,1.0843,1.0905,1.093,1.0951,1.1014,1.1012,1.1025,1.1054,1.1087,1.1094,1.11,1.1124,1.1133,1.1031,1.1031,1.1031,0,1.0581,1.0637,1.0649,1.069,1.0713,1.0714,1.0757,1.0779,1.0824,1.0841,1.0829,1.0909,1.0931,1.0994,1.101,1.1026,1.1039,1.1021,1.1092,1.1098,1.1105,1.1128,1.1136,1.1032,1.1032,1.1032,1.1032,0,1.0658,1.0697,1.0727,1.0771,1.0798,1.0839,1.0858,1.0884,1.0888,1.0904,1.0957,1.0984,1.1026,1.1041,1.1046,1.1105,1.1098,1.1089,1.1068,1.1114,1.1136,1.1145,1.1034,1.1034,1.1033,1.1033,0,0,1.0716,1.0768,1.0779,1.08,1.084,1.0871,1.0913,1.0954,1.0977,1.1008,1.1045,1.1098,1.1091,1.1115,1.1122,1.1151,1.1202,1.1139,1.114,1.115,1.127,1.1278,1.1287,1.12,1.1202,1.1203,1.1268,0,1.0772,1.0848,1.0861,1.0927,1.0964,1.0966,1.1004,1.1033,1.1049,1.1083,1.1101,1.1139,1.1126,1.1141,1.1169,1.1189,1.1226,1.1185,1.1235,1.1237,1.1227,1.1299,1.1306,1.1365,1.1277,1.1278,1.1279,0,1.0848,1.0883,1.0953,1.099,1.1006,1.1039,1.108,1.1112,1.1146,1.1155,1.1183,1.1188,1.1233,1.121,1.1273,1.1244,1.1266,1.1279,1.1282,1.1287,1.1261,1.1307,1.1384,1.1394,1.1292,1.1291,1.129,0,1.0885,1.0949,1.1,1.1018,1.1062,1.1086,1.1105,1.1137,1.1162,1.1197,1.1213,1.1253,1.1275,1.1306,1.1321,1.1303,1.1384,1.1362,1.1394,1.1394,1.1411,1.141,1.1494,1.1424,1.1424,1.1423,1.1423,0,1.0948,1.0991,1.1018,1.1049,1.1098,1.1113,1.1161,1.118,1.1209,1.1244,1.1248,1.1281,1.13,1.1336,1.1349,1.14,1.1409,1.1419,1.1422,1.1419,1.1418,1.1434,1.143,1.1426,1.1425,1.1425,1.1424,0,1.0997,1.1016,1.1072,1.111,1.1121,1.1155,1.1188,1.1219,1.1235,1.1281,1.1292,1.1318,1.1362,1.138,1.1433,1.1442,1.1501,1.15,1.1489,1.1491,1.1522,1.152,1.162,1.1635,1.1554,1.1555,1.1555,0,1.1035,1.1069,1.1111,1.1135,1.1156,1.1195,1.1221,1.1237,1.1264,1.1306,1.1332,1.1375,1.1411,1.148,1.1504,1.1545,1.1546,1.1579,1.1552,1.1549,1.1548,1.1546,1.155,1.1583,1.1584,1.1585,1.1585,0,1.1103,1.1111,1.1148,1.1189,1.122,1.1253,1.1286,1.1305,1.1327,1.1357,1.1402,1.1429,1.1484,1.1528,1.1571,1.1591,1.1593,1.1594,1.1604,1.1601,1.1594,1.16,1.1503,1.1591,1.1591,1.159,1.159,1.159,1.1149,1.1179,1.1214,1.1256,1.1282,1.1313,1.1344,1.1366,1.1403,1.145,1.1457,1.1505,1.154,1.1598,1.162,1.1658,1.165,1.1664,1.1668,1.1671,1.1674,1.1588,1.1666,1.1666,1.1666,1.1666,1.1665,0,1.1217,1.124,1.1278,1.1324,1.1357,1.1356,1.1392,1.142,1.1462,1.1495,1.153,1.1583,1.1626,1.1654,1.1697,1.1723,1.1725,1.1734,1.1732,1.1737,1.1678,1.1666,1.1732,1.1732,1.1732,1.1732,1.1732,1.1731,1.1256,1.1309,1.1322,1.1388,1.141,1.1458,1.1479,1.1508,1.1534,1.1592,1.1628,1.1646,1.1678,1.1724,1.1764,1.1771,1.1787,1.1797,1.1804,1.1748,1.1741,1.1735,1.1723,1.18,1.18,1.186,1.1861,1.1861]},{"header":{"parameterUnit":"m.s-1","parameterCategory":1,"la1":30.2991,"la2":30.254,"lo1":-89.0895,"lo2":-89.0444,"dy":0.0017,"dx":0.0017,"nx":28,"ny":28,"refTime":"2023-08-31T09:00:00:Z","depth":0,"parameterNumber":3,"parameterNumberName":"V-component_of_WINDS"},"data":[0,0,0,0,0,0,0,0,0,0,0,0,0,0,0,0,0,0,0,0,0,0,0,0,0,0,0,0,0,0,0,0,0,0,0,0,0,0,0,0,0,0,0,0,0,0,0,0,0,0,0,0,0,0,0,0,0,0,0.6393,0.6393,0,0.6358,0.6357,0.6357,0.6307,0.6306,0.6305,0.6305,0.627,0.627,0.627,0,0,0,0,0,0,0,0,0,0,0,0,0,0.6421,0.6421,0.6393,0.6393,0.6392,0.6358,0.6357,0.6357,0.6307,0.6306,0.6305,0.6304,0.627,0.627,0.627,0,0,0,0,0,0,0,0,0,0,0,0,0,0.64,0.6421,0.6393,0.6364,0.6361,0.6358,0.6357,0.6356,0.6307,0.6306,0.6305,0.6304,0.627,0.627,0.627,0.6294,0,0,0.6269,0.6269,0,0,0,0,0,0,0,0,0.6401,0.6399,0.6368,0.6366,0.6362,0.6335,0.6354,0.6336,0.6308,0.6328,0.6305,0.6303,0.6293,0.6291,0.6287,0.6292,0.6291,0.6269,0.6269,0.6269,0.6269,0,0,0,0,0,0,0,0.6402,0.64,0.6379,0.6368,0.6364,0.6353,0.6348,0.635,0.6318,0.6326,0.6322,0.6319,0.6291,0.6287,0.6286,0.629,0.6269,0.6269,0.6269,0.6269,0.6314,0.6315,0,0,0,0,0,0,0.6408,0.6401,0.638,0.6378,0.6379,0.6353,0.6348,0.6345,0.6318,0.6312,0.632,0.6316,0.6288,0.6286,0.6284,0.6311,0.6269,0.6269,0.6269,0.6313,0.6314,0.6316,0,0,0,0,0,0,0.6409,0.6407,0.6382,0.6389,0.6385,0.6354,0.6351,0.6345,0.6341,0.6313,0.6307,0.6322,0.6287,0.6285,0.6292,0.6309,0.6269,0.6268,0.6311,0.6313,0.6315,0.6365,0,0,0,0,0,0,0.641,0.6407,0.6416,0.6389,0.6384,0.6389,0.6352,0.6346,0.6341,0.6336,0.6313,0.6308,0.6286,0.6292,0.6292,0.6308,0.6268,0.631,0.6312,0.6315,0.6361,0.6368,0.6374,0,0,0,0,0,0.6411,0.6431,0.6416,0.6414,0.6394,0.639,0.6388,0.6361,0.6343,0.6351,0.6333,0.6309,0.6307,0.6294,0.6292,0.6309,0.6308,0.6311,0.6314,0.6359,0.6367,0.6374,0,0,0,0,0,0,0.6461,0.6427,0.641,0.6422,0.641,0.6382,0.6392,0.6371,0.6363,0.6359,0.6327,0.6322,0.6334,0.6322,0.6307,0.6331,0.6304,0.6307,0.6338,0.6346,0.6352,0.6355,0.6268,0,0,0,0,0,0.6473,0.6472,0.6443,0.6457,0.6451,0.6423,0.642,0.6401,0.6386,0.6381,0.6363,0.6351,0.6347,0.6346,0.6341,0.6359,0.6354,0.637,0.6377,0.6382,0.6385,0.6394,0.6401,0.6326,0.6326,0.6326,0,0,0.6499,0.6481,0.6482,0.6467,0.6454,0.6455,0.6419,0.6421,0.6421,0.6381,0.6387,0.6374,0.6358,0.6371,0.6375,0.6361,0.6404,0.6386,0.639,0.639,0.6398,0.6405,0.6411,0.6328,0.6327,0.6327,0,0,0.6546,0.6532,0.6542,0.653,0.6512,0.6493,0.6495,0.6471,0.646,0.6465,0.6436,0.6436,0.6431,0.6421,0.6415,0.6459,0.6437,0.6458,0.6491,0.65,0.6506,0.6512,0.6528,0.6534,0.6461,0.6461,0.6462,0,0.6581,0.658,0.655,0.6554,0.6548,0.6512,0.6522,0.6512,0.6494,0.6491,0.6475,0.6468,0.6455,0.6465,0.6476,0.6472,0.6475,0.6461,0.6508,0.6513,0.6517,0.6532,0.6538,0.6464,0.6464,0.6464,0.6463,0,0.6623,0.6623,0.6633,0.6616,0.6611,0.6618,0.659,0.6589,0.657,0.6553,0.6559,0.6542,0.6533,0.6534,0.6516,0.6542,0.6534,0.6514,0.6486,0.6527,0.6541,0.6546,0.6468,0.6467,0.6466,0.6466,0,0,0.6701,0.6667,0.6671,0.6663,0.664,0.6639,0.6645,0.6636,0.6636,0.6625,0.6629,0.6626,0.6607,0.66,0.6581,0.6589,0.6625,0.6567,0.6566,0.6579,0.6653,0.6669,0.6676,0.661,0.6611,0.6612,0.6655,0,0.6744,0.6751,0.6724,0.6739,0.6738,0.6704,0.6709,0.6696,0.6681,0.6679,0.6661,0.666,0.6634,0.663,0.6637,0.6619,0.664,0.6616,0.6615,0.6615,0.662,0.6683,0.67,0.6741,0.666,0.6661,0.6661,0,0.6795,0.6786,0.68,0.6776,0.6775,0.678,0.677,0.6768,0.6753,0.6741,0.6734,0.6711,0.6716,0.6689,0.6696,0.668,0.6679,0.667,0.6671,0.667,0.6641,0.6685,0.6754,0.676,0.6669,0.6669,0.6668,0,0.6851,0.6842,0.6849,0.6843,0.6816,0.682,0.6809,0.6793,0.6789,0.678,0.6778,0.677,0.6766,0.6761,0.6737,0.672,0.6747,0.6718,0.6738,0.6738,0.6745,0.6745,0.6815,0.6744,0.6743,0.6743,0.6743,0,0.6902,0.6912,0.6874,0.6878,0.6889,0.6859,0.687,0.6856,0.6842,0.6843,0.6813,0.6816,0.6784,0.6783,0.6764,0.6773,0.6771,0.6762,0.6757,0.6765,0.6766,0.6764,0.676,0.6745,0.6745,0.6744,0.6744,0,0.6966,0.6941,0.6946,0.692,0.6914,0.6923,0.69,0.6904,0.6886,0.6889,0.6888,0.6861,0.6858,0.6834,0.6826,0.6813,0.683,0.6819,0.6835,0.6831,0.6852,0.6851,0.6924,0.6932,0.6855,0.6855,0.6856,0,0.7,0.7007,0.6981,0.698,0.697,0.6969,0.6964,0.6935,0.6932,0.6916,0.6922,0.6917,0.6911,0.6909,0.6889,0.6883,0.6872,0.6898,0.6871,0.6879,0.6873,0.6873,0.6874,0.6904,0.6905,0.6906,0.6907,0,0.7064,0.7051,0.7046,0.7037,0.7033,0.7024,0.7014,0.7015,0.6983,0.6981,0.6978,0.6974,0.6965,0.6961,0.6952,0.6941,0.6919,0.6915,0.6919,0.6928,0.6937,0.6933,0.6851,0.6914,0.6913,0.6912,0.6912,0.6912,0.7114,0.7119,0.7102,0.7097,0.7086,0.7077,0.7079,0.7062,0.7058,0.7049,0.7032,0.7032,0.7017,0.7002,0.6993,0.6993,0.698,0.6986,0.6987,0.699,0.6994,0.6936,0.6991,0.6991,0.6991,0.6991,0.699,0,0.7177,0.7164,0.716,0.7146,0.7143,0.7121,0.7109,0.7108,0.7108,0.7095,0.709,0.7087,0.7083,0.7062,0.7056,0.706,0.705,0.7059,0.7059,0.7057,0.7006,0.7003,0.7068,0.7068,0.7068,0.7068,0.7068,0.7068,0.7209,0.7216,0.7201,0.7202,0.7189,0.7188,0.7183,0.7175,0.7165,0.7162,0.7158,0.7145,0.7129,0.7122,0.7117,0.7112,0.7111,0.7124,0.7115,0.7068,0.7061,0.7053,0.7051,0.7124,0.7124,0.7166,0.7167,0.7167]}]]